This demonstration page uses our WeatherBlox Daily Observations layout. Learn more.

Left ArrowRight Arrow

39.08367, -84.50855

Hourly Observations for December 14, 2020

Temp ( °F °C ) Dew Point ( °F °C ) Humidity (%) Winds ( mph kmh ) Pressure ( in mb ) Visibility ( mi km ) Precip ( " mm )
12:25 am 00:25 Cloudy 40 4.4 35 1.7 83 83 S 3 6 30.09 1019 10 16 N/A
12:53 am 00:53 Cloudy 40 4.4 35 1.7 83 83 SSE 5 7 30.06 1018 10 16 N/A
1:53 am 01:53 Cloudy 40 4.4 35 1.7 83 83 N N/A 30.02 1017 10 16 N/A
2:01 am 02:01 Cloudy 40 4.4 35 1.7 83 83 N 3 6 30.04 1017 10 16 N/A
2:09 am 02:09 Cloudy 40 4.4 35 1.7 83 83 N N/A 30.04 1017 10 16 N/A
2:26 am 02:26 Cloudy 40 4.4 35 1.7 83 83 N N/A 30.05 1018 10 16 N/A
2:53 am 02:53 Cloudy 39 3.9 35 1.7 86 86 NE 5 7 30.01 1016 10 16 N/A
3:53 am 03:53 Cloudy 39 3.9 35 1.7 86 86 N N/A 30.03 1017 10 16 N/A
4:27 am 04:27 Cloudy 39 3.9 35 1.7 86 86 N N/A 30.04 1017 10 16 N/A
4:40 am 04:40 Cloudy 40 4.4 35 1.7 83 83 N N/A 30.04 1017 10 16 N/A
4:53 am 04:53 Cloudy 40 4.4 35 1.7 83 83 N N/A 30.02 1017 10 16 N/A
5:53 am 05:53 Cloudy 40 4.4 34 1.1 79 79 N 5 7 30.04 1017 10 16 N/A
6:29 am 06:29 Cloudy 40 4.4 33 0.6 77 77 N 9 15 30.06 1018 10 16 N/A
6:53 am 06:53 Cloudy 40 4.4 33 0.6 77 77 NNW 8 13 30.07 1018 10 16 N/A
7:53 am 07:53 Cloudy 40 4.4 33 0.6 77 77 NW 9 15 30.08 1019 10 16 N/A
8:53 am 08:53 Cloudy 40 4.4 30 -1.1 68 68 NNW 10 17 30.11 1020 10 16 N/A
9:53 am 09:53 Cloudy 38 3.3 29 -1.7 70 70 NW 15 24 30.16 1021 10 16 N/A
10:53 am 10:53 Cloudy 36 2.2 27 -2.8 70 70 NW 9 15 30.20 1023 10 16 N/A
11:53 am 11:53 Cloudy 35 1.7 24 -4.4 64 64 NW 12 19 30.22 1023 10 16 N/A
12:53 pm 12:53 Cloudy 33 0.6 23 -5 66 66 N 13 20 30.21 1023 10 16 N/A
1:53 pm 13:53 Cloudy 32 undefined 22 -5.6 66 66 NNW 8 13 30.23 1024 10 16 N/A
2:53 pm 14:53 Cloudy 33 0.6 22 -5.6 64 64 NW 8 13 30.24 1024 10 16 N/A
3:53 pm 15:53 Cloudy 32 undefined 21 -6.1 64 64 NNW 6 9 30.27 1025 10 16 N/A
4:03 pm 16:03 Cloudy 32 undefined 20 -6.7 61 61 NNW 8 13 30.29 1026 10 16 N/A
4:53 pm 16:53 Cloudy 32 undefined 21 -6.1 64 64 WNW 6 9 30.29 1026 10 16 N/A
5:53 pm 17:53 Cloudy 32 undefined 20 -6.7 61 61 W 5 7 30.31 1026 10 16 N/A
6:53 pm 18:53 Cloudy 32 undefined 20 -6.7 61 61 WNW 6 9 30.32 1027 10 16 N/A
7:53 pm 19:53 Cloudy 31 -0.6 21 -6.1 67 67 WNW 5 7 30.35 1028 10 16 N/A
8:53 pm 20:53 Cloudy 31 -0.6 21 -6.1 67 67 WNW 3 6 30.36 1028 10 16 N/A
9:53 pm 21:53 Clear 29 -1.7 21 -6.1 72 72 N N/A 30.36 1028 10 16 N/A
10:53 pm 22:53 Clear 27 -2.8 22 -5.6 81 81 N N/A 30.36 1028 10 16 N/A
11:53 pm 23:53 Clear 25 -3.9 20 -6.7 81 81 N N/A 30.36 1028 10 16 N/A

Powered by AerisWeather